Weather History for KCKB - February, 2012

Change the Weather History Date:

Thursday, February 16, 2012

  Actual Average Record
Temperature  
Mean Temperature 44 °F -  
Max Temperature 48 °F 45 °F 73 °F (1954)
Min Temperature 39 °F 24 °F -12 °F (1930)
Degree Days  
Heating Degree Days 22    
Moisture  
Dew Point 42 °F    
Average Humidity 86    
Maximum Humidity 93    
Minimum Humidity 76    
Precipitation  
Precipitation 0.31 in - - ()
Sea Level Pressure  
Sea Level Pressure 30.03 in    
Wind  
Wind Speed 4 mph (WSW)    
Max Wind Speed 12 mph    
Max Gust Speed 20 mph    
Visibility 8 miles    
Events Rain    
Averages and records for this station are not official NWS values.
T = Trace of Precipitation, MM = Missing Value Source: NWS Daily Summary

Daily Weather History Graph

Daily Weather History Graph

Search for Another Location

Airport or City:

Trip Planner

Search our weather history database for the weather conditions in past years. The results will help you decide how hot, cold, wet, or windy it might be!

Date:

Astronomy

Feb. 16, 2012 Rise Set
Actual Time 7:12 AM EST 5:58 PM EST
Civil Twilight 6:44 AM EST 6:25 PM EST
Nautical Twilight 6:13 AM EST 6:57 PM EST
Astronomical Twilight 5:42 AM EST 7:28 PM EST
Moon 3:05 AM EST (2/16) 12:49 PM EST (2/16)
Length of Visible Light 11h 41m
Length of Day
10h 46m
Waning Crescent, 28% of the Moon is Illuminated
Feb 16
Waning Crescent
Feb 21
New
Feb 29
First Quarter
Mar 8
Full
Mar 14
Last Quarter

Hourly Weather History & Observations

Time (EST) Temp. Windchill Dew Point Humidity Pressure Visibility Wind Dir Wind Speed Gust Speed Precip Events Conditions
12:53 AM 41.0 °F - 34.0 °F 76% 30.13 in 10.0 mi Calm Calm - 0.00 in Rain Light Rain
1:53 AM 39.9 °F - 34.0 °F 79% 30.13 in 10.0 mi Calm Calm - 0.00 in   Overcast
2:53 AM 41.0 °F 37.1 °F 34.0 °F 76% 30.09 in 10.0 mi WNW 5.8 mph - N/A   Overcast
3:53 AM 39.9 °F 36.7 °F 34.0 °F 79% 30.08 in 10.0 mi WNW 4.6 mph - N/A   Overcast
4:53 AM 39.9 °F - 35.1 °F 83% 30.10 in 8.0 mi Calm Calm - 0.00 in Rain Light Rain
5:53 AM 43.0 °F 41.3 °F 39.0 °F 86% 30.08 in 6.0 mi Variable 3.5 mph - 0.11 in Rain Light Rain
6:53 AM 45.0 °F 41.8 °F 37.9 °F 76% 30.09 in 10.0 mi SSW 5.8 mph - 0.01 in   Overcast
7:53 AM 44.1 °F 42.5 °F 39.9 °F 85% 30.08 in 8.0 mi South 3.5 mph - 0.03 in Rain Light Rain
8:53 AM 46.0 °F 43.1 °F 39.9 °F 79% 30.05 in 8.0 mi SE 5.8 mph - 0.05 in   Overcast
9:53 AM 46.0 °F - 41.0 °F 83% 30.03 in 10.0 mi Calm Calm - 0.00 in   Overcast
10:50 AM 46.4 °F - 41.0 °F 81% 30.01 in 10.0 mi Calm Calm - 0.00 in   Overcast
10:53 AM 46.9 °F - 41.0 °F 80% 30.01 in 10.0 mi Calm Calm - 0.00 in   Overcast
11:05 AM 46.4 °F - 41.0 °F 81% 30.02 in 5.0 mi Calm Calm - 0.01 in Rain Light Rain
11:39 AM 46.4 °F 44.3 °F 42.8 °F 87% 30.01 in 4.0 mi South 4.6 mph - 0.05 in Rain Light Rain
11:53 AM 46.9 °F - 43.0 °F 86% 30.00 in 10.0 mi SSW 3.5 mph - 0.06 in Rain Light Rain
12:30 PM 46.4 °F 44.3 °F 44.6 °F 93% 29.99 in 2.0 mi South 4.6 mph - 0.02 in Rain Rain
12:38 PM 46.4 °F 45.2 °F 44.6 °F 93% 29.98 in 4.0 mi South 3.5 mph - 0.02 in Rain Light Rain
12:53 PM 46.9 °F - 44.1 °F 90% 29.98 in 9.0 mi South 5.8 mph - 0.02 in Rain Light Rain
1:28 PM 48.2 °F - 44.6 °F 87% 29.96 in 2.0 mi SSW 6.9 mph - 0.00 in   Overcast
1:42 PM 48.2 °F - 46.4 °F 93% 29.96 in 10.0 mi SW 6.9 mph - 0.00 in   Overcast
1:53 PM 48.9 °F - 45.0 °F 86% 29.96 in 10.0 mi SW 8.1 mph - 0.00 in   Overcast
2:53 PM 48.9 °F - 45.0 °F 86% 29.96 in 10.0 mi WSW 9.2 mph - N/A   Overcast
3:53 PM 48.2 °F - 46.4 °F 93% 29.97 in 10.0 mi WSW 9.2 mph - N/A   Overcast
4:41 PM 48.2 °F - 46.4 °F 93% 29.99 in 1.8 mi WSW 5.8 mph - 0.00 in Rain Light Rain
4:53 PM 48.0 °F - 46.0 °F 93% 29.99 in 1.8 mi WSW 8.1 mph - 0.01 in Rain Light Rain
5:35 PM 48.2 °F - 46.4 °F 93% 30.00 in 2.0 mi WSW 5.8 mph - 0.00 in   Overcast
6:53 PM 48.0 °F - 46.0 °F 93% 30.01 in 10.0 mi WSW 6.9 mph - N/A   Overcast
7:53 PM 48.0 °F - 46.0 °F 93% 30.03 in 5.0 mi WNW 4.6 mph - 0.01 in Rain Light Rain
8:00 PM 48.2 °F - 46.4 °F 93% 30.03 in 5.0 mi West 5.8 mph - 0.00 in Rain Light Rain
8:16 PM 48.2 °F - 44.6 °F 87% 30.03 in 8.0 mi West 9.2 mph - 0.00 in   Overcast
8:29 PM 48.2 °F - 44.6 °F 87% 30.03 in 10.0 mi West 8.1 mph - 0.00 in   Overcast
8:53 PM 48.0 °F - 44.1 °F 86% 30.03 in 10.0 mi West 8.1 mph - 0.00 in   Overcast
9:10 PM 48.2 °F - 44.6 °F 87% 30.04 in 10.0 mi West 5.8 mph - N/A   Overcast
9:34 PM 46.4 °F 44.3 °F 44.6 °F 93% 30.04 in 10.0 mi West 4.6 mph - N/A   Overcast
9:53 PM 46.9 °F - 44.1 °F 90% 30.04 in 10.0 mi West 5.8 mph - N/A   Overcast
10:53 PM 46.9 °F - 43.0 °F 86% 30.04 in 10.0 mi West 8.1 mph - N/A   Overcast
11:53 PM 46.0 °F 40.6 °F 42.1 °F 86% 30.04 in 10.0 mi WNW 11.5 mph 19.6 mph 0.01 in   Overcast